Weather History for North Padre Island, TX

Change the Weather History Date:

Tuesday, November 20, 2012

  Actual Average Record
Temperature  
Mean Temperature 73 °F -  
Max Temperature 75 °F - - ()
Min Temperature 71 °F - - ()
Cooling Degree Days 8    
Growing Degree Days 23 (Base 50)    
Moisture  
Dew Point 63 °F    
Average Humidity 71    
Maximum Humidity 83    
Minimum Humidity 61    
Precipitation  
Precipitation 0.00 in - - ()
Sea Level Pressure  
Sea Level Pressure 30.17 in    
Wind  
Wind Speed 5 mph (NNE)    
Max Wind Speed 12 mph    
Max Gust Speed -    
Visibility 9 miles    
Events      
T = Trace of Precipitation, MM = Missing Value Source: NWS Daily Summary

Daily Weather History Graph

Daily Weather History Graph

Search for Another Location

Airport:

Trip Planner

Search our weather history database for the weather conditions in past years. The results will help you decide how hot, cold, wet, or windy it might be!

Date:

Astronomy

Nov. 20, 2012 Rise Set
Actual Time 6:51 AM CST 5:35 PM CST
Civil Twilight 6:26 AM CST 6:00 PM CST
Nautical Twilight 5:58 AM CST 6:28 PM CST
Astronomical Twilight 5:30 AM CST 6:56 PM CST
Moon 12:45 PM CST (11/20) No Moon Set
Length of Visible Light 11h 33m
Length of Day
10h 43m
First Quarter, 51% of the Moon is Illuminated
Nov 20
First Quarter
Nov 28
Full
Dec 6
Last Quarter
Dec 13
New
Dec 19
First Quarter

Hourly Weather History & Observations

Time (CST) Temp. Dew Point Humidity Pressure Visibility Wind Dir Wind Speed Gust Speed Precip Events Conditions
12:15 AM 73.4 °F 59.0 °F 61% 30.16 in 9.0 mi ESE 8.1 mph - N/A   Scattered Clouds
12:35 AM 73.4 °F 60.8 °F 65% 30.15 in 9.0 mi SE 8.1 mph - N/A   Clear
12:55 AM 73.4 °F 59.0 °F 61% 30.15 in 9.0 mi SE 8.1 mph - N/A   Clear
1:15 AM 73.4 °F 60.8 °F 65% 30.14 in 10.0 mi SE 9.2 mph - N/A   Clear
1:35 AM 73.4 °F 60.8 °F 65% 30.14 in 9.0 mi ESE 9.2 mph - N/A   Clear
1:55 AM 73.4 °F 60.8 °F 65% 30.14 in 8.0 mi SE 6.9 mph - N/A   Clear
2:15 AM 73.4 °F 60.8 °F 65% 30.14 in 10.0 mi SE 6.9 mph - N/A   Clear
2:35 AM 73.4 °F 60.8 °F 65% 30.14 in 10.0 mi SE 6.9 mph - N/A   Clear
2:55 AM 73.4 °F 60.8 °F 65% 30.13 in 6.0 mi SE 6.9 mph - N/A   Haze
3:15 AM 73.4 °F 60.8 °F 65% 30.14 in 9.0 mi SSE 5.8 mph - N/A   Clear
3:35 AM 73.4 °F 60.8 °F 65% 30.14 in 9.0 mi South 5.8 mph - N/A   Clear
3:55 AM 73.4 °F 60.8 °F 65% 30.14 in 8.0 mi Calm Calm - N/A   Clear
4:15 AM 73.4 °F 60.8 °F 65% 30.15 in 10.0 mi Calm Calm - N/A   Clear
4:35 AM 73.4 °F 60.8 °F 65% 30.14 in 9.0 mi Calm Calm - N/A   Clear
4:55 AM 71.6 °F 60.8 °F 69% 30.14 in - ESE 3.5 mph - N/A   Clear
5:15 AM 71.6 °F 60.8 °F 69% 30.13 in 9.0 mi Calm Calm - N/A   Clear
5:35 AM 71.6 °F 60.8 °F 69% 30.14 in 10.0 mi Calm Calm - N/A   Clear
5:55 AM 71.6 °F 60.8 °F 69% 30.15 in 10.0 mi Calm Calm - N/A   Clear
6:15 AM 71.6 °F 60.8 °F 69% 30.15 in 10.0 mi Calm Calm - N/A   Clear
6:35 AM 71.6 °F 60.8 °F 69% 30.16 in 10.0 mi Calm Calm - N/A   Clear
6:55 AM 71.6 °F 60.8 °F 69% 30.16 in 9.0 mi Calm Calm - N/A   Clear
7:15 AM 71.6 °F 60.8 °F 69% 30.17 in 9.0 mi Calm Calm - N/A   Clear
7:35 AM 71.6 °F 62.6 °F 73% 30.18 in 9.0 mi Calm Calm - N/A   Clear
7:55 AM 73.4 °F 62.6 °F 69% 30.19 in 9.0 mi Calm Calm - N/A   Clear
8:15 AM 73.4 °F 62.6 °F 69% 30.19 in 7.0 mi Calm Calm - N/A   Clear
8:35 AM 73.4 °F 62.6 °F 69% 30.20 in 8.0 mi Calm Calm - N/A   Clear
8:55 AM 73.4 °F 62.6 °F 69% 30.20 in 10.0 mi NNW 4.6 mph - N/A   Clear
9:15 AM 73.4 °F 62.6 °F 69% 30.21 in 6.0 mi NNW 3.5 mph - N/A   Haze
9:35 AM 73.4 °F 64.4 °F 73% 30.22 in 9.0 mi NNW 4.6 mph - N/A   Clear
9:55 AM 73.4 °F 64.4 °F 73% 30.21 in 9.0 mi Calm Calm - N/A   Clear
10:15 AM 73.4 °F 64.4 °F 73% 30.21 in 9.0 mi North 3.5 mph - N/A   Clear
10:35 AM 73.4 °F 64.4 °F 73% 30.21 in 5.0 mi NNW 4.6 mph - N/A   Haze
10:55 AM 73.4 °F 64.4 °F 73% 30.21 in 8.0 mi NNW 4.6 mph - N/A   Clear
11:15 AM 73.4 °F 64.4 °F 73% 30.20 in 9.0 mi Calm Calm - N/A   Clear
11:35 AM 75.2 °F 64.4 °F 69% 30.19 in 9.0 mi Calm Calm - N/A   Clear
11:55 AM 75.2 °F 64.4 °F 69% 30.18 in 9.0 mi Calm Calm - N/A   Clear
12:15 PM 73.4 °F 64.4 °F 73% 30.18 in 10.0 mi NNW 5.8 mph - N/A   Clear
12:35 PM 75.2 °F 64.4 °F 69% 30.17 in 9.0 mi NNW 4.6 mph - N/A   Clear
12:55 PM 73.4 °F 64.4 °F 73% 30.16 in 4.0 mi NNW 5.8 mph - N/A   Haze
1:15 PM 73.4 °F 62.6 °F 69% 30.16 in 8.0 mi NNW 5.8 mph - N/A   Clear
1:35 PM 73.4 °F 62.6 °F 69% 30.15 in 9.0 mi NNW 5.8 mph - N/A   Clear
2:15 PM 73.4 °F 62.6 °F 69% 30.14 in 10.0 mi North 4.6 mph - N/A   Clear
2:35 PM 73.4 °F 64.4 °F 73% 30.14 in 7.0 mi NNW 5.8 mph - N/A   Clear
2:55 PM 73.4 °F 64.4 °F 73% 30.14 in 10.0 mi NNW 4.6 mph - N/A   Clear
3:15 PM 73.4 °F 64.4 °F 73% 30.13 in 9.0 mi NNW 4.6 mph - N/A   Clear
3:55 PM 73.4 °F 64.4 °F 73% 30.13 in 9.0 mi NNW 4.6 mph - N/A   Clear
4:15 PM 73.4 °F 64.4 °F 73% 30.13 in 9.0 mi North 4.6 mph - N/A   Clear
4:35 PM 73.4 °F 64.4 °F 73% 30.14 in 9.0 mi North 3.5 mph - N/A   Clear
4:55 PM 71.6 °F 64.4 °F 78% 30.14 in 6.0 mi North 4.6 mph - N/A   Haze
5:15 PM 71.6 °F 64.4 °F 78% 30.14 in 9.0 mi North 4.6 mph - N/A   Clear
5:35 PM 71.6 °F 66.2 °F 83% 30.15 in 9.0 mi North 4.6 mph - N/A   Clear
5:55 PM 71.6 °F 66.2 °F 83% 30.15 in 9.0 mi North 5.8 mph - N/A   Clear
6:15 PM 71.6 °F 66.2 °F 83% 30.16 in 9.0 mi North 5.8 mph - N/A   Clear
6:35 PM 71.6 °F 66.2 °F 83% 30.16 in 9.0 mi North 4.6 mph - N/A   Clear
6:55 PM 71.6 °F 66.2 °F 83% 30.17 in 9.0 mi North 5.8 mph - N/A   Clear
7:15 PM 71.6 °F 66.2 °F 83% 30.17 in 7.0 mi North 5.8 mph - N/A   Clear
7:35 PM 71.6 °F 66.2 °F 83% 30.18 in 8.0 mi North 6.9 mph - N/A   Clear
7:55 PM 71.6 °F 66.2 °F 83% 30.19 in 9.0 mi NNE 6.9 mph - N/A   Clear
8:15 PM 73.4 °F 62.6 °F 69% 30.19 in 10.0 mi NE 10.4 mph - N/A   Clear
8:35 PM 73.4 °F 62.6 °F 69% 30.19 in 10.0 mi NE 11.5 mph - N/A   Clear
8:55 PM 73.4 °F 62.6 °F 69% 30.20 in 9.0 mi NE 11.5 mph - N/A   Clear
9:15 PM 73.4 °F 62.6 °F 69% 30.20 in 9.0 mi NE 11.5 mph - N/A   Clear
9:35 PM 73.4 °F 60.8 °F 65% 30.20 in 5.0 mi NE 9.2 mph - N/A   Haze
9:55 PM 73.4 °F 60.8 °F 65% 30.20 in 7.0 mi NE 10.4 mph - N/A   Clear
10:15 PM 73.4 °F 60.8 °F 65% 30.20 in 8.0 mi NE 8.1 mph - N/A   Clear
10:35 PM 73.4 °F 62.6 °F 69% 30.19 in 10.0 mi NE 6.9 mph - N/A   Clear
10:55 PM 73.4 °F 60.8 °F 65% 30.19 in 10.0 mi NE 8.1 mph - N/A   Clear
11:15 PM 73.4 °F 62.6 °F 69% 30.19 in 10.0 mi ENE 8.1 mph - N/A   Clear
11:35 PM 73.4 °F 62.6 °F 69% 30.18 in 10.0 mi East 4.6 mph - N/A   Clear
11:55 PM 73.4 °F 60.8 °F 65% 30.18 in 10.0 mi ENE 6.9 mph - N/A   Clear